EJU92TK LEBL-LPPT

Flight info

Callsign EJU92TK
Flight time 1h 33m
Altitude 35000
Route SENIA DCT DORMI DCT CRETA DCT NEXAS DCT DISVU DCT ADUXO N975 PALIO DCT AKOKI DCT GOTOR DCT TLD DCT NATPA DCT MELON DCT CCS DCT ELVAR DCT UPULO
Aircraft A320/M-SDE2E3FGHIJ1RWXYZ/LB1

Departure

Time 2026-05-06 16:37
Airport Josep Tarradellas Barcelona-El Prat Airport (LEBL)

Arrival

Time 2026-05-06 18:11
Airport Lisbon Humberto Delgado Airport (LPPT)
Time Latitude Longitude Altitude Speed Heading
2026-05-06 16:14 41.29082 2.07744 3 ft 0 kts 155°
2026-05-06 16:23 41.29088 2.07741 3 ft 2 kts 155°
2026-05-06 16:23 41.29104 2.07731 5 ft 2 kts 155°
2026-05-06 16:23 41.29120 2.07721 4 ft 2 kts 155°
2026-05-06 16:23 41.29135 2.07711 4 ft 3 kts 148°
2026-05-06 16:24 41.29148 2.07696 3 ft 2 kts 112°
2026-05-06 16:24 41.29153 2.07690 3 ft 2 kts 82°
2026-05-06 16:24 41.29156 2.07703 3 ft 0 kts 68°
2026-05-06 16:26 41.29157 2.07704 3 ft 1 kts 67°
2026-05-06 16:26 41.29175 2.07757 3 ft 7 kts 65°
2026-05-06 16:26 41.29193 2.07811 3 ft 6 kts 65°
2026-05-06 16:27 41.29209 2.07857 3 ft 5 kts 65°
2026-05-06 16:27 41.29222 2.07895 4 ft 6 kts 65°
2026-05-06 16:27 41.29249 2.07973 3 ft 6 kts 65°
2026-05-06 16:27 41.29262 2.08011 3 ft 0 kts 65°
2026-05-06 16:28 41.29273 2.08043 3 ft 5 kts 65°
2026-05-06 16:28 41.29280 2.08063 3 ft 1 kts 65°
2026-05-06 16:28 41.29281 2.08067 3 ft 0 kts 65°
2026-05-06 16:29 41.29298 2.08116 3 ft 10 kts 65°
2026-05-06 16:29 41.29325 2.08194 3 ft 9 kts 65°
2026-05-06 16:29 41.29348 2.08261 3 ft 7 kts 65°
2026-05-06 16:29 41.29368 2.08322 4 ft 10 kts 70°
2026-05-06 16:30 41.29344 2.08395 3 ft 9 kts 151°
2026-05-06 16:30 41.29304 2.08420 3 ft 10 kts 155°
2026-05-06 16:30 41.29215 2.08476 4 ft 12 kts 156°
2026-05-06 16:30 41.29138 2.08518 3 ft 12 kts 155°
2026-05-06 16:31 41.29058 2.08568 6 ft 13 kts 155°
2026-05-06 16:31 41.28975 2.08617 9 ft 13 kts 156°
2026-05-06 16:31 41.28883 2.08672 5 ft 16 kts 145°
2026-05-06 16:31 41.28888 2.08808 3 ft 15 kts 65°
2026-05-06 16:32 41.28931 2.08931 3 ft 14 kts 65°
2026-05-06 16:32 41.28968 2.09039 4 ft 12 kts 66°
2026-05-06 16:32 41.29009 2.09159 3 ft 21 kts 65°
2026-05-06 16:32 41.29073 2.09346 3 ft 22 kts 66°
2026-05-06 16:33 41.29134 2.09525 3 ft 17 kts 65°
2026-05-06 16:33 41.29169 2.09624 4 ft 11 kts 65°
2026-05-06 16:33 41.29198 2.09709 3 ft 9 kts 66°
2026-05-06 16:34 41.29268 2.09915 4 ft 16 kts 64°
2026-05-06 16:34 41.29271 2.10035 5 ft 8 kts 111°
2026-05-06 16:34 41.29258 2.10079 3 ft 3 kts 111°
2026-05-06 16:34 41.29258 2.10080 3 ft 0 kts 111°
2026-05-06 16:35 41.29256 2.10088 4 ft 7 kts 111°
2026-05-06 16:35 41.29242 2.10210 5 ft 14 kts 73°
2026-05-06 16:35 41.29221 2.10292 5 ft 10 kts 180°
2026-05-06 16:36 41.29193 2.10249 5 ft 0 kts 248°
2026-05-06 16:36 41.29190 2.10238 5 ft 8 kts 246°
2026-05-06 16:36 41.29060 2.09861 7 ft 81 kts 245°
2026-05-06 16:37 41.28739 2.08929 8 ft 139 kts 246°
2026-05-06 16:37 41.28271 2.07652 336 ft 157 kts 242°
2026-05-06 16:37 41.27685 2.06451 1029 ft 155 kts 215°
2026-05-06 16:37 41.26651 2.05944 1447 ft 173 kts 184°
2026-05-06 16:38 41.25374 2.05898 1748 ft 195 kts 183°
2026-05-06 16:38 41.23947 2.05855 2125 ft 212 kts 183°
2026-05-06 16:38 41.22451 2.05812 2816 ft 217 kts 184°
2026-05-06 16:38 41.20930 2.05771 3537 ft 220 kts 184°
2026-05-06 16:39 41.19384 2.05727 4261 ft 223 kts 184°
2026-05-06 16:39 41.18354 2.05687 4749 ft 225 kts 187°
2026-05-06 16:39 41.16839 2.05177 5336 ft 231 kts 208°
2026-05-06 16:39 41.15375 2.04189 5915 ft 241 kts 211°
2026-05-06 16:40 41.14053 2.02700 6289 ft 259 kts 238°
2026-05-06 16:40 41.13372 2.00470 6941 ft 265 kts 255°
2026-05-06 16:40 41.12889 1.98103 7726 ft 267 kts 255°
2026-05-06 16:40 41.12405 1.95710 8534 ft 270 kts 255°
2026-05-06 16:41 41.11916 1.93295 9362 ft 272 kts 255°
2026-05-06 16:41 41.11423 1.90866 10144 ft 275 kts 255°
2026-05-06 16:41 41.10907 1.88330 10460 ft 295 kts 255°
2026-05-06 16:41 41.10351 1.85607 10748 ft 313 kts 255°
2026-05-06 16:42 41.09775 1.82792 11367 ft 320 kts 255°
2026-05-06 16:42 41.09284 1.79898 12068 ft 323 kts 260°
2026-05-06 16:42 41.08946 1.76938 12781 ft 327 kts 261°
2026-05-06 16:42 41.08637 1.73939 13479 ft 330 kts 261°
2026-05-06 16:43 41.08343 1.70911 14115 ft 333 kts 262°
2026-05-06 16:43 41.08049 1.67845 14768 ft 335 kts 261°
2026-05-06 16:43 41.07750 1.64780 15445 ft 336 kts 261°
2026-05-06 16:43 41.07444 1.61713 16104 ft 337 kts 261°
2026-05-06 16:44 41.07132 1.58623 16762 ft 338 kts 261°
2026-05-06 16:44 41.06816 1.55525 17421 ft 340 kts 261°
2026-05-06 16:44 41.06496 1.52417 18075 ft 341 kts 261°
2026-05-06 16:44 41.06174 1.49297 18644 ft 343 kts 261°
2026-05-06 16:45 41.05847 1.46165 19208 ft 344 kts 260°
2026-05-06 16:45 41.05519 1.43021 19773 ft 345 kts 260°
2026-05-06 16:45 41.05187 1.39866 20347 ft 346 kts 260°
2026-05-06 16:45 41.04855 1.36701 20919 ft 348 kts 260°
2026-05-06 16:46 41.04522 1.33528 21489 ft 349 kts 259°
2026-05-06 16:46 41.04183 1.30312 22061 ft 350 kts 259°
2026-05-06 16:46 41.03850 1.27140 22626 ft 351 kts 259°
2026-05-06 16:46 41.03512 1.23933 23174 ft 352 kts 259°
2026-05-06 16:47 41.03171 1.20712 23668 ft 354 kts 259°
2026-05-06 16:47 41.02830 1.17482 24103 ft 355 kts 259°
2026-05-06 16:47 41.02487 1.14248 24535 ft 356 kts 259°
2026-05-06 16:47 41.02142 1.10994 24959 ft 356 kts 259°
2026-05-06 16:48 41.01795 1.07742 25367 ft 357 kts 259°
2026-05-06 16:48 41.01445 1.04480 25772 ft 358 kts 259°
2026-05-06 16:48 41.01094 1.01210 26167 ft 359 kts 259°
2026-05-06 16:48 41.00744 0.97937 26553 ft 360 kts 259°
2026-05-06 16:49 41.00390 0.94648 26931 ft 361 kts 258°
2026-05-06 16:49 41.00034 0.91359 27308 ft 362 kts 258°
2026-05-06 16:49 40.99674 0.88057 27693 ft 363 kts 258°
2026-05-06 16:49 40.99313 0.84748 28033 ft 364 kts 258°
2026-05-06 16:50 40.98950 0.81431 28384 ft 365 kts 258°
2026-05-06 16:50 40.98583 0.78099 28743 ft 366 kts 258°
2026-05-06 16:50 40.98213 0.74760 29101 ft 367 kts 258°
2026-05-06 16:50 40.97841 0.71415 29440 ft 368 kts 258°
2026-05-06 16:51 40.97469 0.68060 29762 ft 369 kts 258°
2026-05-06 16:51 40.97094 0.64697 30073 ft 370 kts 258°
2026-05-06 16:51 40.96716 0.61324 30313 ft 371 kts 258°
2026-05-06 16:51 40.96334 0.57937 30503 ft 373 kts 258°
2026-05-06 16:52 40.95952 0.54533 30698 ft 376 kts 259°
2026-05-06 16:52 40.95562 0.51096 30907 ft 378 kts 258°
2026-05-06 16:52 40.95171 0.47662 31190 ft 378 kts 258°
2026-05-06 16:52 40.94777 0.44227 31454 ft 378 kts 259°
2026-05-06 16:53 40.94382 0.40783 31729 ft 379 kts 259°
2026-05-06 16:53 40.93989 0.37339 31991 ft 379 kts 258°
2026-05-06 16:53 40.93594 0.33885 32260 ft 380 kts 259°
2026-05-06 16:53 40.93197 0.30432 32525 ft 380 kts 259°
2026-05-06 16:54 40.92801 0.26973 32783 ft 381 kts 259°
2026-05-06 16:54 40.92399 0.23512 33050 ft 381 kts 259°
2026-05-06 16:54 40.91996 0.20055 33319 ft 381 kts 259°
2026-05-06 16:54 40.91593 0.16589 33588 ft 381 kts 259°
2026-05-06 16:55 40.91191 0.13135 33855 ft 381 kts 259°
2026-05-06 16:55 40.90784 0.09668 34085 ft 382 kts 259°
2026-05-06 16:55 40.90376 0.06198 34295 ft 382 kts 259°
2026-05-06 16:55 40.89967 0.02724 34502 ft 383 kts 259°
2026-05-06 16:56 40.89557 -0.00750 34707 ft 383 kts 259°
2026-05-06 16:56 40.89144 -0.04228 34872 ft 384 kts 259°
2026-05-06 16:56 40.88728 -0.07718 34924 ft 388 kts 259°
2026-05-06 16:57 40.87875 -0.14849 34931 ft 397 kts 259°
2026-05-06 16:57 40.87013 -0.22110 34930 ft 402 kts 259°
2026-05-06 16:58 40.86136 -0.29415 34928 ft 402 kts 259°
2026-05-06 16:58 40.85252 -0.36716 34931 ft 402 kts 259°
2026-05-06 16:59 40.84358 -0.44058 34934 ft 403 kts 259°
2026-05-06 16:59 40.83460 -0.51363 34935 ft 403 kts 259°
2026-05-06 17:00 40.82562 -0.58661 34936 ft 403 kts 259°
2026-05-06 17:00 40.81660 -0.65955 34942 ft 403 kts 259°
2026-05-06 17:01 40.80756 -0.73253 34944 ft 403 kts 259°
2026-05-06 17:01 40.79845 -0.80546 34942 ft 403 kts 259°
2026-05-06 17:02 40.78935 -0.87840 34945 ft 403 kts 260°
2026-05-06 17:02 40.78016 -0.95130 34952 ft 403 kts 260°
2026-05-06 17:03 40.77091 -1.02419 34950 ft 403 kts 260°
2026-05-06 17:03 40.76164 -1.09714 34946 ft 403 kts 260°
2026-05-06 17:04 40.75234 -1.16995 34946 ft 403 kts 260°
2026-05-06 17:04 40.74292 -1.24283 34945 ft 403 kts 259°
2026-05-06 17:05 40.72634 -1.31327 34944 ft 403 kts 251°
2026-05-06 17:05 40.70684 -1.38254 34946 ft 403 kts 251°
2026-05-06 17:06 40.68729 -1.45183 34946 ft 403 kts 251°
2026-05-06 17:06 40.66775 -1.52107 34945 ft 403 kts 251°
2026-05-06 17:07 40.64818 -1.59019 34948 ft 403 kts 251°
2026-05-06 17:07 40.63005 -1.66033 34943 ft 402 kts 255°
2026-05-06 17:08 40.61518 -1.73121 34947 ft 402 kts 256°
2026-05-06 17:08 40.60088 -1.80226 34947 ft 401 kts 256°
2026-05-06 17:09 40.58629 -1.87307 34945 ft 401 kts 255°
2026-05-06 17:09 40.57137 -1.94379 34942 ft 401 kts 255°
2026-05-06 17:10 40.55633 -2.01490 34937 ft 401 kts 255°
2026-05-06 17:10 40.54139 -2.08544 34931 ft 400 kts 255°
2026-05-06 17:11 40.52644 -2.15598 34924 ft 400 kts 255°
2026-05-06 17:11 40.51152 -2.22641 34920 ft 400 kts 255°
2026-05-06 17:12 40.49653 -2.29686 34915 ft 400 kts 255°
2026-05-06 17:12 40.48137 -2.36726 34913 ft 401 kts 255°
2026-05-06 17:13 40.46622 -2.43767 34908 ft 401 kts 255°
2026-05-06 17:13 40.45101 -2.50817 34910 ft 401 kts 255°
2026-05-06 17:14 40.43576 -2.57862 34914 ft 402 kts 255°
2026-05-06 17:14 40.42045 -2.64916 34914 ft 402 kts 255°
2026-05-06 17:15 40.40772 -2.70782 34915 ft 402 kts 255°
2026-05-06 17:15 40.39234 -2.77824 34914 ft 402 kts 255°
2026-05-06 17:16 40.37683 -2.84873 34913 ft 402 kts 255°
2026-05-06 17:16 40.36126 -2.91925 34917 ft 403 kts 255°
2026-05-06 17:17 40.34575 -2.98971 34921 ft 403 kts 255°
2026-05-06 17:17 40.33010 -3.06073 34923 ft 403 kts 255°
2026-05-06 17:18 40.31450 -3.13124 34930 ft 403 kts 255°
2026-05-06 17:18 40.29876 -3.20175 34925 ft 403 kts 255°
2026-05-06 17:19 40.28481 -3.26411 34928 ft 403 kts 255°
2026-05-06 17:19 40.26906 -3.33452 34924 ft 403 kts 255°
2026-05-06 17:20 40.25323 -3.40501 34923 ft 404 kts 255°
2026-05-06 17:20 40.23733 -3.47550 34922 ft 404 kts 255°
2026-05-06 17:21 40.22135 -3.54603 34920 ft 404 kts 255°
2026-05-06 17:21 40.20534 -3.61659 34920 ft 405 kts 255°
2026-05-06 17:22 40.18934 -3.68717 34914 ft 405 kts 255°
2026-05-06 17:22 40.17320 -3.75779 34911 ft 406 kts 255°
2026-05-06 17:23 40.15703 -3.82850 34940 ft 407 kts 253°
2026-05-06 17:23 40.14048 -3.90036 34915 ft 417 kts 252°
2026-05-06 17:24 40.12365 -3.97343 34911 ft 422 kts 253°
2026-05-06 17:24 40.10672 -4.04689 34902 ft 423 kts 252°
2026-05-06 17:25 40.08966 -4.12043 34898 ft 423 kts 252°
2026-05-06 17:25 40.07259 -4.19386 34895 ft 423 kts 252°
2026-05-06 17:26 40.05546 -4.26726 34891 ft 423 kts 252°
2026-05-06 17:26 40.03827 -4.34068 34891 ft 423 kts 252°
2026-05-06 17:27 40.02098 -4.41407 34887 ft 423 kts 252°
2026-05-06 17:27 40.00384 -4.48665 34884 ft 423 kts 252°
2026-05-06 17:28 39.98646 -4.56005 34879 ft 423 kts 252°
2026-05-06 17:28 39.96910 -4.63338 34874 ft 423 kts 252°
2026-05-06 17:29 39.95165 -4.70671 34876 ft 424 kts 252°
2026-05-06 17:29 39.93414 -4.78016 34874 ft 424 kts 252°
2026-05-06 17:30 39.91654 -4.85355 34874 ft 425 kts 252°
2026-05-06 17:30 39.89885 -4.92709 34873 ft 425 kts 252°
2026-05-06 17:31 39.88119 -5.00062 34872 ft 426 kts 252°
2026-05-06 17:31 39.86341 -5.07413 34872 ft 426 kts 252°
2026-05-06 17:32 39.84557 -5.14775 34874 ft 427 kts 252°
2026-05-06 17:32 39.82768 -5.22141 34872 ft 427 kts 252°
2026-05-06 17:33 39.80974 -5.29499 34873 ft 427 kts 252°
2026-05-06 17:33 39.79175 -5.36853 34871 ft 427 kts 252°
2026-05-06 17:34 39.77362 -5.44205 34869 ft 427 kts 252°
2026-05-06 17:34 39.75545 -5.51568 34870 ft 428 kts 252°
2026-05-06 17:35 39.73732 -5.58928 34872 ft 428 kts 252°
2026-05-06 17:35 39.71907 -5.66285 34871 ft 428 kts 252°
2026-05-06 17:36 39.69161 -5.77329 34872 ft 429 kts 252°
2026-05-06 17:36 39.67333 -5.84695 34874 ft 429 kts 252°
2026-05-06 17:37 39.65491 -5.92055 34874 ft 429 kts 252°
2026-05-06 17:37 39.63637 -5.99420 34878 ft 429 kts 252°
2026-05-06 17:38 39.61782 -6.06778 34878 ft 429 kts 252°
2026-05-06 17:38 39.59925 -6.14127 34879 ft 429 kts 252°
2026-05-06 17:39 39.58065 -6.21482 34878 ft 429 kts 252°
2026-05-06 17:39 39.56197 -6.28826 34878 ft 429 kts 252°
2026-05-06 17:40 39.54321 -6.36163 34877 ft 429 kts 252°
2026-05-06 17:40 39.52409 -6.43477 34876 ft 429 kts 248°
2026-05-06 17:41 39.49802 -6.50426 34874 ft 429 kts 245°
2026-05-06 17:41 39.47146 -6.57336 34877 ft 429 kts 245°
2026-05-06 17:42 39.44486 -6.64248 34877 ft 429 kts 245°
2026-05-06 17:42 39.41813 -6.71202 34878 ft 429 kts 245°
2026-05-06 17:43 39.39157 -6.78096 34872 ft 428 kts 244°
2026-05-06 17:43 39.36491 -6.84976 34873 ft 428 kts 244°
2026-05-06 17:44 39.33811 -6.91893 34873 ft 428 kts 244°
2026-05-06 17:44 39.31140 -6.98759 34873 ft 428 kts 244°
2026-05-06 17:45 39.28465 -7.05611 34876 ft 428 kts 244°
2026-05-06 17:45 39.27126 -7.09044 34661 ft 426 kts 244°
2026-05-06 17:45 39.25810 -7.12422 34132 ft 420 kts 244°
2026-05-06 17:46 39.24499 -7.15783 33567 ft 415 kts 244°
2026-05-06 17:46 39.23220 -7.19060 32664 ft 406 kts 244°
2026-05-06 17:46 39.21956 -7.22292 31703 ft 400 kts 243°
2026-05-06 17:46 39.20704 -7.25448 31054 ft 388 kts 243°
2026-05-06 17:47 39.19476 -7.28469 30593 ft 373 kts 242°
2026-05-06 17:47 39.18284 -7.31370 30138 ft 360 kts 242°
2026-05-06 17:47 39.17129 -7.34169 29659 ft 348 kts 242°
2026-05-06 17:47 39.16004 -7.36900 29240 ft 342 kts 242°
2026-05-06 17:48 39.14896 -7.39593 28827 ft 339 kts 242°
2026-05-06 17:48 39.13802 -7.42255 28430 ft 335 kts 242°
2026-05-06 17:48 39.12721 -7.44891 28043 ft 331 kts 242°
2026-05-06 17:48 39.11654 -7.47496 27652 ft 327 kts 242°
2026-05-06 17:49 39.10598 -7.50071 27265 ft 324 kts 242°
2026-05-06 17:49 39.09547 -7.52630 26868 ft 322 kts 242°
2026-05-06 17:49 39.08840 -7.54351 26607 ft 321 kts 242°
2026-05-06 17:49 39.07799 -7.56887 26211 ft 320 kts 242°
2026-05-06 17:50 39.06763 -7.59410 25812 ft 318 kts 242°
2026-05-06 17:50 39.05731 -7.61916 25409 ft 317 kts 242°
2026-05-06 17:50 39.04701 -7.64413 25005 ft 315 kts 242°
2026-05-06 17:50 39.03686 -7.66914 24661 ft 318 kts 243°
2026-05-06 17:51 39.02669 -7.69541 24352 ft 334 kts 243°
2026-05-06 17:51 39.01650 -7.72241 24028 ft 336 kts 243°
2026-05-06 17:51 39.00636 -7.74949 23707 ft 336 kts 243°
2026-05-06 17:51 38.99622 -7.77653 23370 ft 335 kts 243°
2026-05-06 17:52 38.98606 -7.80342 23020 ft 334 kts 243°
2026-05-06 17:52 38.97586 -7.83020 22690 ft 333 kts 243°
2026-05-06 17:52 38.96554 -7.85725 22368 ft 331 kts 243°
2026-05-06 17:52 38.95543 -7.88374 22052 ft 330 kts 243°
2026-05-06 17:53 38.94534 -7.91017 21735 ft 329 kts 243°
2026-05-06 17:53 38.93525 -7.93650 21420 ft 328 kts 243°
2026-05-06 17:53 38.92518 -7.96266 21106 ft 326 kts 243°
2026-05-06 17:53 38.91513 -7.98874 20787 ft 325 kts 243°
2026-05-06 17:54 38.90469 -8.01439 20473 ft 323 kts 237°
2026-05-06 17:54 38.89123 -8.03713 20177 ft 320 kts 231°
2026-05-06 17:54 38.87858 -8.06053 19924 ft 319 kts 236°
2026-05-06 17:54 38.86651 -8.08432 19569 ft 317 kts 237°
2026-05-06 17:55 38.85477 -8.10770 19196 ft 315 kts 237°
2026-05-06 17:55 38.84286 -8.13154 18830 ft 313 kts 237°
2026-05-06 17:55 38.83113 -8.15507 18466 ft 312 kts 237°
2026-05-06 17:55 38.81947 -8.17848 18020 ft 312 kts 237°
2026-05-06 17:56 38.80749 -8.20244 17149 ft 325 kts 237°
2026-05-06 17:56 38.79522 -8.22695 16618 ft 327 kts 237°
2026-05-06 17:56 38.78294 -8.25143 16193 ft 326 kts 237°
2026-05-06 17:56 38.77216 -8.27681 15804 ft 324 kts 249°
2026-05-06 17:57 38.76501 -8.30412 15396 ft 323 kts 251°
2026-05-06 17:57 38.75806 -8.33140 15008 ft 321 kts 251°
2026-05-06 17:57 38.75121 -8.35853 14620 ft 319 kts 251°
2026-05-06 17:57 38.74440 -8.38550 14255 ft 317 kts 251°
2026-05-06 17:58 38.73762 -8.41229 13874 ft 315 kts 251°
2026-05-06 17:58 38.73075 -8.43926 13473 ft 314 kts 251°
2026-05-06 17:58 38.72411 -8.46532 13062 ft 312 kts 251°
2026-05-06 17:58 38.71737 -8.49171 12847 ft 304 kts 251°
2026-05-06 17:59 38.71074 -8.51757 12270 ft 308 kts 251°
2026-05-06 17:59 38.70403 -8.54365 11780 ft 309 kts 251°
2026-05-06 17:59 38.69732 -8.56975 11333 ft 309 kts 251°
2026-05-06 17:59 38.69062 -8.59575 10908 ft 308 kts 251°
2026-05-06 18:00 38.68393 -8.62172 10492 ft 307 kts 251°
2026-05-06 18:00 38.67724 -8.64771 10081 ft 306 kts 252°
2026-05-06 18:00 38.67057 -8.67356 9657 ft 305 kts 252°
2026-05-06 18:00 38.66394 -8.69929 9255 ft 303 kts 252°
2026-05-06 18:01 38.65748 -8.72439 9126 ft 291 kts 252°
2026-05-06 18:01 38.65123 -8.74863 8896 ft 283 kts 252°
2026-05-06 18:01 38.64508 -8.77237 8559 ft 281 kts 252°
2026-05-06 18:01 38.63894 -8.79601 8177 ft 279 kts 252°
2026-05-06 18:02 38.63285 -8.81950 7791 ft 278 kts 252°
2026-05-06 18:02 38.62679 -8.84291 7403 ft 277 kts 252°
2026-05-06 18:02 38.62076 -8.86620 7020 ft 275 kts 252°
2026-05-06 18:02 38.61476 -8.88941 6629 ft 274 kts 252°
2026-05-06 18:03 38.60872 -8.91282 6233 ft 273 kts 252°
2026-05-06 18:03 38.60285 -8.93542 5932 ft 268 kts 252°
2026-05-06 18:03 38.59685 -8.95839 5475 ft 269 kts 252°
2026-05-06 18:03 38.59102 -8.98073 5096 ft 267 kts 253°
2026-05-06 18:04 38.58514 -9.00315 4730 ft 265 kts 253°
2026-05-06 18:04 38.57930 -9.02541 4446 ft 262 kts 254°
2026-05-06 18:04 38.57334 -9.04823 4316 ft 264 kts 254°
2026-05-06 18:04 38.56796 -9.07051 4183 ft 261 kts 262°
2026-05-06 18:05 38.56812 -9.09296 4067 ft 245 kts 284°
2026-05-06 18:05 38.57159 -9.11369 4005 ft 232 kts 285°
2026-05-06 18:05 38.57483 -9.13317 4006 ft 217 kts 284°
2026-05-06 18:05 38.57787 -9.15147 4007 ft 206 kts 285°
2026-05-06 18:06 38.58091 -9.16935 4011 ft 213 kts 285°
2026-05-06 18:06 38.58570 -9.18748 3786 ft 215 kts 302°
2026-05-06 18:06 38.59483 -9.20205 3673 ft 208 kts 321°
2026-05-06 18:06 38.60692 -9.21169 3548 ft 201 kts 338°
2026-05-06 18:07 38.62009 -9.21567 3392 ft 190 kts 355°
2026-05-06 18:07 38.63312 -9.21431 3198 ft 189 kts 11°
2026-05-06 18:07 38.64545 -9.20844 2959 ft 188 kts 19°
2026-05-06 18:07 38.65754 -9.20200 2718 ft 187 kts 19°
2026-05-06 18:08 38.66945 -9.19565 2444 ft 184 kts 18°
2026-05-06 18:08 38.68100 -9.18948 2186 ft 175 kts 18°
2026-05-06 18:08 38.69189 -9.18366 1957 ft 163 kts 18°
2026-05-06 18:08 38.70208 -9.17823 1740 ft 151 kts 18°
2026-05-06 18:09 38.71137 -9.17327 1551 ft 140 kts 17°
2026-05-06 18:09 38.72015 -9.16860 1376 ft 134 kts 17°
2026-05-06 18:09 38.72880 -9.16400 1159 ft 136 kts 17°
2026-05-06 18:09 38.73739 -9.15941 992 ft 133 kts 16°
2026-05-06 18:10 38.74603 -9.15482 796 ft 135 kts 17°
2026-05-06 18:10 38.75471 -9.15017 635 ft 137 kts 18°
2026-05-06 18:10 38.76346 -9.14548 450 ft 135 kts 17°
2026-05-06 18:10 38.77190 -9.14093 360 ft 122 kts 14°
2026-05-06 18:11 38.77848 -9.13746 353 ft 79 kts 23°
2026-05-06 18:11 38.78199 -9.13555 357 ft 36 kts 31°
2026-05-06 18:11 38.78344 -9.13392 358 ft 15 kts 50°
2026-05-06 18:11 38.78367 -9.13286 357 ft 13 kts 127°
2026-05-06 18:12 38.78312 -9.13268 352 ft 7 kts 203°
2026-05-06 18:12 38.78272 -9.13290 359 ft 6 kts 202°
2026-05-06 18:12 38.78237 -9.13308 355 ft 6 kts 202°
2026-05-06 18:12 38.78201 -9.13328 353 ft 7 kts 203°
2026-05-06 18:13 38.78158 -9.13350 356 ft 8 kts 201°
2026-05-06 18:13 38.78085 -9.13390 355 ft 11 kts 205°
2026-05-06 18:13 38.78021 -9.13424 356 ft 9 kts 202°
2026-05-06 18:13 38.77967 -9.13453 358 ft 9 kts 203°
2026-05-06 18:14 38.77897 -9.13490 356 ft 10 kts 202°
2026-05-06 18:14 38.77835 -9.13513 360 ft 9 kts 182°
2026-05-06 18:14 38.77779 -9.13499 358 ft 8 kts 168°
2026-05-06 18:14 38.77708 -9.13481 355 ft 15 kts 168°
2026-05-06 18:15 38.77616 -9.13456 352 ft 12 kts 168°
2026-05-06 18:15 38.77535 -9.13433 357 ft 12 kts 168°
2026-05-06 18:15 38.77455 -9.13412 351 ft 11 kts 169°
2026-05-06 18:15 38.77378 -9.13392 352 ft 11 kts 167°
2026-05-06 18:16 38.77329 -9.13334 350 ft 9 kts 100°
2026-05-06 18:16 38.77320 -9.13277 356 ft 6 kts 117°
2026-05-06 18:16 38.77274 -9.13244 353 ft 10 kts 167°
2026-05-06 18:16 38.77209 -9.13227 355 ft 8 kts 165°
2026-05-06 18:17 38.77202 -9.13175 356 ft 2 kts 79°
2026-05-06 18:17 38.77205 -9.13152 351 ft 3 kts 80°
2026-05-06 18:17 38.77206 -9.13142 360 ft 0 kts 79°